Voltar ao catálogo

COSMOS 249 DEB

AtivoLEO
NORAD 14430·DEBRIS·🇷🇺 Russia

Lançado Oct 20, 1968 de Baikonur Cosmodrome

Loading…

Próximas Passagens (próximas 24 horas)

TLE

AtualizadoSource: Space-Track

Época: Sep 13, 2026, 20:35 UTC

1 14430U 68091CV  26256.85794765  .00001573  00000-0  18889-2 0  9990
2 14430  62.2437  48.3858 0658933 195.0112 320.1889 13.02262976112437

Acompanhe COSMOS 249 DEB em tempo real com AllMySat

Download on the App Store